Hourly Weather Wŏnsan

Today, 15 July, Wednesday

Time Temperature Precipitation Wind Pressure Humidity
00:00 +18°C° 0 mm 1 mps 753 mmHg 93%
01:00 +18°C° 0 mm 1 mps 753 mmHg 93%
02:00 +18°C° 0 mm 1 mps 753 mmHg 92%
03:00 +18°C° 0 mm 1 mps 753 mmHg 91%
04:00 +18°C° 0 mm 1 mps 753 mmHg 90%
05:00 +19°C° 0 mm 1 mps 753 mmHg 89%
06:00 +21°C° 0 mm 1 mps 753 mmHg 83%
07:00 +23°C° 0 mm 1 mps 753 mmHg 77%
08:00 +25°C° 0 mm 1 mps 753 mmHg 70%
09:00 +26°C° 0 mm 1 mps 753 mmHg 68%
10:00 +27°C° 0 mm 2 mps 753 mmHg 66%
11:00 +28°C° 0 mm 2 mps 753 mmHg 63%
12:00 +28°C° 0 mm 2 mps 752 mmHg 64%
13:00 +28°C° 0 mm 3 mps 752 mmHg 64%
14:00 +28°C° 0 mm 3 mps 752 mmHg 65%
15:00 +27°C° 0 mm 3 mps 752 mmHg 69%
16:00 +26°C° 0 mm 2 mps 752 mmHg 74%
17:00 +26°C° 0 mm 2 mps 752 mmHg 78%
18:00 +24°C° 0 mm 2 mps 752 mmHg 84%
19:00 +22°C° 0 mm 1 mps 752 mmHg 89%
20:00 +20°C° 0 mm 1 mps 752 mmHg 94%
21:00 +20°C° 0 mm 1 mps 753 mmHg 94%
22:00 +20°C° 0 mm 1 mps 753 mmHg 93%
23:00 +20°C° 0 mm 1 mps 753 mmHg 93%

Tomorrow, 16 July, Thursday

Time Temperature Precipitation Wind Pressure Humidity
00:00 +20°C° 0 mm 1 mps 753 mmHg 93%
01:00 +20°C° 0 mm 1 mps 753 mmHg 92%
02:00 +20°C° 0 mm 1 mps 753 mmHg 92%
03:00 +20°C° 0 mm 1 mps 753 mmHg 93%
04:00 +20°C° 0 mm 1 mps 753 mmHg 93%
05:00 +21°C° 0 mm 1 mps 754 mmHg 93%
06:00 +20°C° 0 mm 0 mps 754 mmHg 88%
07:00 +22°C° 0 mm 0 mps 754 mmHg 84%
08:00 +24°C° 0 mm 0 mps 753 mmHg 79%
09:00 +27°C° 0 mm 1 mps 753 mmHg 78%
10:00 +27°C° 0 mm 1 mps 753 mmHg 77%
11:00 +28°C° 0 mm 1 mps 753 mmHg 76%
12:00 +28°C° 0.4 mm 2 mps 753 mmHg 77%
13:00 +28°C° 0.4 mm 2 mps 753 mmHg 79%
14:00 +28°C° 0.4 mm 2 mps 753 mmHg 80%
15:00 +27°C° 0.4 mm 2 mps 753 mmHg 83%
16:00 +26°C° 0.4 mm 2 mps 753 mmHg 86%
17:00 +26°C° 0.4 mm 2 mps 753 mmHg 89%
18:00 +24°C° 0.2 mm 1 mps 753 mmHg 91%
19:00 +23°C° 0.2 mm 1 mps 754 mmHg 94%
20:00 +22°C° 0.2 mm 1 mps 754 mmHg 96%
21:00 +21°C° 0 mm 1 mps 754 mmHg 96%
22:00 +19°C° 0 mm 0 mps 754 mmHg 96%
23:00 +19°C° 0 mm 0 mps 754 mmHg 95%

Day after tomorrow, 17 July, Friday

Time Temperature Precipitation Wind Pressure Humidity
00:00 +19°C° 0 mm 0 mps 754 mmHg 95%
01:00 +18°C° 0 mm 0 mps 754 mmHg 95%
02:00 +18°C° 0 mm 0 mps 754 mmHg 95%
03:00 +18°C° 0 mm 0 mps 755 mmHg 95%
04:00 +19°C° 0 mm 0 mps 755 mmHg 95%
05:00 +19°C° 0 mm 0 mps 755 mmHg 95%
06:00 +21°C° 0 mm 0 mps 755 mmHg 90%
07:00 +25°C° 0 mm 1 mps 755 mmHg 85%
08:00 +27°C° 0 mm 1 mps 755 mmHg 81%
09:00 +27°C° 0 mm 1 mps 755 mmHg 78%
10:00 +28°C° 0 mm 1 mps 755 mmHg 76%
11:00 +29°C° 0 mm 2 mps 755 mmHg 74%
12:00 +29°C° 0.1 mm 2 mps 755 mmHg 74%
13:00 +29°C° 0.1 mm 2 mps 755 mmHg 75%
14:00 +28°C° 0.1 mm 2 mps 754 mmHg 75%
15:00 +27°C° 0 mm 2 mps 755 mmHg 77%
16:00 +26°C° 0 mm 2 mps 755 mmHg 80%
17:00 +26°C° 0 mm 2 mps 755 mmHg 82%
18:00 +24°C° 0 mm 2 mps 755 mmHg 86%
19:00 +22°C° 0 mm 1 mps 756 mmHg 91%
20:00 +20°C° 0 mm 1 mps 756 mmHg 95%
21:00 +20°C° 0 mm 1 mps 756 mmHg 95%
22:00 +17°C° 0 mm 0 mps 756 mmHg 95%
23:00 +17°C° 0 mm 0 mps 756 mmHg 94%

18 July, Saturday

Time Temperature Precipitation Wind Pressure Humidity
00:00 +17°C° 0 mm 0 mps 756 mmHg 94%
01:00 +17°C° 0 mm 0 mps 756 mmHg 94%
02:00 +18°C° 0 mm 1 mps 756 mmHg 93%
03:00 +19°C° 0 mm 1 mps 756 mmHg 92%
04:00 +19°C° 0 mm 1 mps 756 mmHg 92%
05:00 +19°C° 0 mm 1 mps 756 mmHg 91%
06:00 +21°C° 0 mm 1 mps 756 mmHg 86%
07:00 +22°C° 0 mm 1 mps 756 mmHg 81%
08:00 +24°C° 0 mm 1 mps 756 mmHg 76%
09:00 +25°C° 0 mm 1 mps 756 mmHg 73%
10:00 +26°C° 0 mm 2 mps 756 mmHg 69%
11:00 +27°C° 0 mm 2 mps 756 mmHg 66%
12:00 +27°C° 0 mm 2 mps 756 mmHg 66%
13:00 +27°C° 0 mm 2 mps 755 mmHg 66%
14:00 +27°C° 0 mm 2 mps 755 mmHg 66%
15:00 +26°C° 0 mm 2 mps 755 mmHg 70%
16:00 +26°C° 0 mm 2 mps 755 mmHg 74%
17:00 +25°C° 0 mm 2 mps 754 mmHg 77%
18:00 +23°C° 0 mm 1 mps 755 mmHg 82%
19:00 +21°C° 0 mm 1 mps 755 mmHg 87%
20:00 +17°C° 0 mm 0 mps 755 mmHg 92%
21:00 +17°C° 0 mm 0 mps 755 mmHg 91%
22:00 +16°C° 0 mm 0 mps 755 mmHg 90%
23:00 +16°C° 0 mm 0 mps 756 mmHg 88%

19 July, Sunday

Time Temperature Precipitation Wind Pressure Humidity
00:00 +16°C° 0 mm 0 mps 755 mmHg 89%
01:00 +18°C° 0 mm 1 mps 755 mmHg 90%
02:00 +16°C° 0 mm 1 mps 755 mmHg 91%
03:00 +16°C° 0 mm 1 mps 755 mmHg 93%
04:00 +18°C° 0 mm 1 mps 755 mmHg 94%
05:00 +18°C° 0 mm 1 mps 755 mmHg 95%
06:00 +20°C° 0 mm 1 mps 755 mmHg 90%
07:00 +21°C° 0 mm 1 mps 755 mmHg 85%
08:00 +23°C° 0 mm 1 mps 755 mmHg 80%
09:00 +24°C° 0 mm 1 mps 754 mmHg 77%
10:00 +24°C° 0 mm 2 mps 754 mmHg 74%
11:00 +25°C° 0 mm 2 mps 754 mmHg 72%
12:00 +25°C° 0 mm 2 mps 754 mmHg 74%
13:00 +25°C° 0 mm 3 mps 753 mmHg 76%
14:00 +24°C° 0 mm 3 mps 753 mmHg 78%
15:00 +24°C° 0 mm 3 mps 753 mmHg 82%
16:00 +23°C° 0 mm 2 mps 753 mmHg 87%
17:00 +23°C° 0 mm 2 mps 753 mmHg 91%
18:00 +21°C° 0.1 mm 2 mps 753 mmHg 93%
19:00 +21°C° 0.1 mm 2 mps 753 mmHg 95%
20:00 +21°C° 0.1 mm 3 mps 754 mmHg 96%
21:00 +21°C° 0.2 mm 3 mps 754 mmHg 97%
22:00 +21°C° 0.2 mm 3 mps 753 mmHg 97%
23:00 +21°C° 0.2 mm 3 mps 753 mmHg 98%

20 July, Monday

Time Temperature Precipitation Wind Pressure Humidity
00:00 +21°C° 0.6 mm 3 mps 753 mmHg 98%
01:00 +21°C° 0.6 mm 4 mps 752 mmHg 98%
02:00 +21°C° 0.6 mm 4 mps 752 mmHg 99%
03:00 +21°C° 2.4 mm 4 mps 752 mmHg 99%
04:00 +21°C° 2.4 mm 4 mps 751 mmHg 99%
05:00 +21°C° 2.4 mm 4 mps 751 mmHg 99%
06:00 +21°C° 4.2 mm 4 mps 751 mmHg 99%
07:00 +21°C° 4.2 mm 4 mps 751 mmHg 99%
08:00 +21°C° 4.2 mm 4 mps 751 mmHg 99%
09:00 +21°C° 1.1 mm 4 mps 751 mmHg 99%
10:00 +21°C° 1.1 mm 4 mps 751 mmHg 99%
11:00 +21°C° 1.1 mm 3 mps 751 mmHg 99%
12:00 +21°C° 0.7 mm 3 mps 751 mmHg 98%
13:00 +21°C° 0.7 mm 2 mps 751 mmHg 98%
14:00 +21°C° 0.7 mm 2 mps 751 mmHg 97%
15:00 +22°C° 0.2 mm 1 mps 751 mmHg 97%
16:00 +22°C° 0.2 mm 1 mps 751 mmHg 97%
17:00 +22°C° 0.2 mm 1 mps 751 mmHg 97%
18:00 +22°C° 0 mm 1 mps 751 mmHg 97%
19:00 +22°C° 0 mm 1 mps 752 mmHg 97%
20:00 +22°C° 0 mm 1 mps 752 mmHg 97%
21:00 +22°C° 0 mm 1 mps 752 mmHg 96%
22:00 +22°C° 0 mm 1 mps 752 mmHg 96%
23:00 +22°C° 0 mm 1 mps 752 mmHg 96%
Show more